Location: Coupvray
(48.8929°N, 2.7967°E)
Time: 20:23:50
(UTC+00:00)

Cosmos 1741 Rocket - Pass Details

Date: 14 July 2020
Orbit: 761 x 783 km, 74.0° (Epoch: 14 August)

Event Time Altitude Azimuth Distance (km) Brightness Sun altitude
Exits shadow 03:04:20 - 201° (SSW) 2,517 6.1 -7.8°
Reaches altitude 10° 03:04:56 10° 201° (SSW) 2,288 5.9 -7.8°
Maximum altitude 03:10:07 89° 117° (ESE) 770 4.1 -7.2°
Drops below altitude 10° 03:15:23 10° 24° (NNE) 2,312 7.8 -6.5°
Sets 03:17:46 0° 24° (NNE) 3,245 8.7 -6.3°
